Regional Weather Roundup
Issued by NWS

Home | Current Version | Previous Version | Text Only | Print | Product List | Glossary Off
Versions: 1 2 3 4 5 6 7 8 9 10 11 12 13 14 15 16 17 18 19 20 21 22 23 24 25 26 27 28 29 30 31 32 33 34 35 36 37 38 39 40 41 42 43 44 45 46 47 48 49 50

000
ASUS43 KLSX 132307
RWRMO

WEATHER SUMMARY FOR MISSOURI
NATIONAL WEATHER SERVICE SPRINGFIELD MO
600 PM CDT SUN JUL 13 2014

NOTE: "FAIR" INDICATES FEW OR NO CLOUDS BELOW 12,000 FEET WITH NO
       SIGNIFICANT WEATHER AND/OR OBSTRUCTIONS TO VISIBILITY.
       CURRENT SKY AND/OR WEATHER CONDITIONS ARE NOT AVAILABLE FOR
       CHILLICOTHE AND FARMINGTON.

MOZ001>031-035>038-043-044-053-054-140000-
...NORTHERN AND WESTERN MISSOURI...

CITY           SKY/WX    TMP DP  RH WIND       PRES   REMARKS
KANSAS CTY INT MOSUNNY   85  67  54 N7        29.99F
KANSAS C DTWN  MOSUNNY   86  69  56 NW8       29.96F HX  90
LEE`S SUMMIT   PTSUNNY   85  70  60 N9        29.98F
ST JOSEPH      SUNNY     85  70  60 NW6       29.98F
CHILLICOTHE      N/A     88  67  49 N5        29.97F HX  91
KIRKSVILLE     SUNNY     86  66  51 W3        29.97F

$$
MOZ066>068-077>081-088>096-101>105-140000-
...SOUTHWEST MISSOURI...

CITY           SKY/WX    TMP DP  RH WIND       PRES   REMARKS
SPRINGFIELD    MOSUNNY   88  71  57 SW7       29.96F HX  94
JOPLIN         MOSUNNY   90  70  51 W7        29.95F HX  95

$$
MOZ032>034-039>042-045>050-055>058-069>072-140000-
...CENTRAL MISSOURI...

CITY           SKY/WX    TMP DP  RH WIND       PRES   REMARKS
COLUMBIA       LGT RAIN  77  73  87 CALM      29.98S
JEFFERSON CITY CLOUDY    81  73  76 N6        29.96S
ROLLA          CLOUDY    85  69  58 N7        29.96F
SEDALIA        LGT RAIN  79  74  84 NW3       29.98S
WHITEMAN AFB   LGT RAIN  75  70  83 NE10      29.97F
OSAGE BEACH    PTSUNNY   84  73  70 N5        29.96S HX  91

$$
MOZ051-052-059>065-140000-
...EAST CENTRAL MISSOURI...

CITY           SKY/WX    TMP DP  RH WIND       PRES   REMARKS
ST LOUIS INTL  PTSUNNY   88  69  53 SW12      29.94F HX  92
SPIRIT OF STL  LGT RAIN  82  74  76 W9        29.94R
ST CHARLES     CLOUDY    85  70  60 W6        29.92F

$$
MOZ072>076-082>087-097>100-106>115-140000-
...SOUTH CENTRAL AND SOUTHEAST MISSOURI...

CITY           SKY/WX    TMP DP  RH WIND       PRES   REMARKS
CAPE GIRARDEAU SUNNY     91  74  57 SW10      29.93F HX 100
FARMINGTON     PTSUNNY   88  72  58 W6        29.97S HX  94
POPLAR BLUFF   PTSUNNY   90  72  55 SW8       29.94F HX  97
WEST PLAINS    SUNNY     87  72  60 S8        30.00F HX  93

$$



USA.gov is the U.S. government's official web portal to all federal, state and local government web resources and services.